Location: Newark
(34.0131°N, 4.3314°W)
Time: 04:23:40
(UTC+00:00)

Explorer 11/Cluster Stage 4 - Pass Details

Date: 28 October 2019
Orbit: 467 x 1259 km, 28.8° (Epoch: 20 November)

Event Time Altitude Azimuth Distance (km) Brightness Sun altitude
Rises 07:10:30 0° 255° (WSW) 3,066 9.1 6.6°
Reaches altitude 10° 07:13:13 10° 248° (WSW) 2,018 8.3 7.1°
Maximum altitude 07:17:31 40° 179° (S) 825 7.1 7.9°
Drops below altitude 10° 07:21:11 10° 108° (ESE) 1,711 11.7 8.6°
Sets 07:23:19 0° 101° (E) 2,539 11.2 9.0°
